sat.trackr.live / text

‹ back to catalog

STARLINK-32676

NORAD 62426 · 2024-249T

PAYLOAD ACTIVE UNKNOWN

§ Identity

Operator
Country
US
Launch date
2024-12-23
Launch site
AFETR
Launch vehicle
Mass (kg)
RCS (m²)

Purposes: comms

External: N2YO · Heavens-Above · Gunter

§ Orbital elements

Epoch: 2026-09-21T18:07:46.951392Z

Period
94.27 min
Inclination
43.0005°
Eccentricity
0.0002203
Mean motion
15.27597804 rev/d
Perigee alt
481.5 km
Apogee alt
484.5 km
Semi-major
6,861.1 km
B*
5.5975e-4
RAAN
287.2904°
Arg perigee
280.7193°
Mean anomaly
79.3410°
Rev number
9,779

§ Raw data

STARLINK-326761 62426U 24249T   26264.75540453  .00015181  00000+0  55975-3 0  99932 62426  43.0005 287.2904 0002203 280.7193  79.3410 15.27597804 97797

JSON: /api/v1/satellites/62426 · /tle

For live sub-satellite position, see the globe view (requires WebGL).

§ Visibility from observer

Set your observer location to see the next 7 days of passes ≥ 10°. The values pass through the URL so the page stays shareable.

No JS? Fill the form by hand. The geolocation button needs JavaScript.